Amsterdam, Netherlands

9:33 PM CET on December 05, 2019 (GMT +0100)
Schiphol

Weather History for EHAM - October, 2019

Change the Weather History Date:

Sunday, October 6, 2019

  Actual Average Record
Temperature  
Mean Temperature 49 °F -  
Max Temperature 50 °F 54 °F 68 °F (1997)
Min Temperature 48 °F 44 °F 41 °F (1996)
Degree Days  
Heating Degree Days 16    
Moisture  
Dew Point 45 °F    
Average Humidity 86    
Maximum Humidity 94    
Minimum Humidity 73    
Precipitation  
Precipitation 0.47 in - - ()
Sea Level Pressure  
Sea Level Pressure 29.89 in    
Wind  
Wind Speed 12 mph ()    
Max Wind Speed 22 mph    
Max Gust Speed 31 mph    
Visibility 6.7 miles    
Events Rain    
Averages and records for this station are not official NWS values.
T = Trace of Precipitation, MM = Missing Value Source: Averaged Metar Reports

Daily Weather History Graph

Daily Weather History Graph

Search for Another Location

Airport or City:

Astronomy

Oct. 06, 2019 Rise Set
Actual Time 7:49 AM CEST 7:07 PM CEST
Civil Twilight 7:15 AM CEST 7:41 PM CEST
Nautical Twilight 6:36 AM CEST 8:20 PM CEST
Astronomical Twilight 5:56 AM CEST 9:00 PM CEST
Moon 4:31 PM CEST (10/6) No Moon Set
Length of Visible Light 12h 25m
Length of Day
11h 17m
First Quarter, 57% of the Moon is Illuminated
Oct 6
First Quarter
Oct 13
Full
Oct 21
Last Quarter
Oct 28
New
Nov 4
First Quarter

Hourly Weather History & Observations

Time (CEST) Temp. Dew Point Humidity Pressure Visibility Wind Dir Wind Speed Gust Speed Precip Events Conditions
12:25 AM 50.0 °F 44.6 °F 82% 30.04 in - ESE 11.5 mph - N/A   Clear
12:55 AM 50.0 °F 44.6 °F 82% 30.04 in - ESE 9.2 mph - N/A   Clear
1:00 AM 50 °F 44 °F 75% 30.05 in 17 mi ESE 8.9 mph - -   Partly Cloudy
1:25 AM 50.0 °F 44.6 °F 82% 30.04 in - East 9.2 mph - N/A   Clear
1:55 AM 50.0 °F 44.6 °F 82% 30.04 in - East 10.4 mph - N/A   Clear
2:00 AM 50 °F 44 °F 74% 30.04 in 17 mi ESE 8.9 mph - -   Partly Cloudy
2:25 AM 50.0 °F 44.6 °F 82% 30.04 in - ESE 9.2 mph - N/A   Clear
2:55 AM 50.0 °F 44.6 °F 82% 30.01 in - ESE 11.5 mph - N/A   Clear
3:00 AM 50 °F 44 °F 73% 30.03 in 17 mi ESE 13.4 mph - -   Partly Cloudy
3:25 AM 50.0 °F 44.6 °F 82% 30.01 in - ESE 11.5 mph - N/A   Clear
3:55 AM 50.0 °F 42.8 °F 76% 30.01 in - ESE 12.7 mph - N/A   Clear
4:00 AM 49 °F 43 °F 74% 30.00 in 19 mi ESE 11.2 mph - -   Partly Cloudy
4:25 AM 48.2 °F 42.8 °F 82% 29.98 in - East 10.4 mph - N/A   Clear
4:55 AM 50.0 °F 42.8 °F 76% 29.98 in - East 10.4 mph - N/A   Clear
5:00 AM 49 °F 44 °F 75% 29.98 in 17 mi East 8.9 mph - -   Partly Cloudy
5:25 AM 48.2 °F 42.8 °F 82% 29.95 in - East 11.5 mph - N/A   Clear
5:55 AM 48.2 °F 42.8 °F 82% 29.95 in - ESE 12.7 mph - N/A   Clear
6:25 AM 48.2 °F 42.8 °F 82% 29.95 in 6.2 mi ESE 12.7 mph - N/A   Partly Cloudy
6:55 AM 48.2 °F 44.6 °F 87% 29.95 in 6.2 mi ESE 11.5 mph - N/A   Mostly Cloudy
7:00 AM 48 °F 44 °F 80% 29.95 in 16 mi ESE 11.2 mph - -   Partly Cloudy
7:25 AM 48.2 °F 44.6 °F 87% 29.92 in 6.2 mi ESE 10.4 mph - N/A   Mostly Cloudy
7:55 AM 48.2 °F 42.8 °F 82% 29.92 in 6.2 mi ESE 13.8 mph - N/A   Mostly Cloudy
8:00 AM 49 °F 44 °F 75% 29.93 in 19 mi ESE 13.4 mph - -   Partly Cloudy
8:25 AM 48.2 °F 44.6 °F 87% 29.92 in 6.2 mi ESE 11.5 mph - N/A   Overcast
8:55 AM 50.0 °F 44.6 °F 82% 29.89 in 6.2 mi ESE 12.7 mph - N/A   Mostly Cloudy
9:25 AM 50.0 °F 44.6 °F 82% 29.92 in 6.2 mi ESE 12.7 mph - N/A Rain Light Rain
9:55 AM 48.2 °F 44.6 °F 87% 29.89 in 6.2 mi ESE 13.8 mph - N/A Rain Light Rain
10:00 AM 49 °F 45 °F 80% 29.91 in 6 mi ESE 13.4 mph - - Rain Light Rain Showers
10:25 AM 48.2 °F 46.4 °F 93% 29.89 in 6.2 mi ESE 12.7 mph - N/A Rain Light Rain
10:55 AM 48.2 °F 46.4 °F 93% 29.89 in 6.2 mi ESE 16.1 mph - N/A Rain Light Rain
11:00 AM 48 °F 46 °F 90% 29.89 in 7 mi ESE 15.7 mph - - Rain Heavy Rain
11:25 AM 48.2 °F 46.4 °F 93% 29.86 in 5.6 mi ESE 15.0 mph - N/A Rain Light Rain
11:55 AM 48.2 °F 46.4 °F 93% 29.86 in 5.6 mi ESE 16.1 mph - N/A Rain Light Rain
12:00 PM 49 °F 46 °F 87% 29.87 in 6 mi ESE 15.7 mph - - Rain Light Rain
12:25 PM 48.2 °F 46.4 °F 93% 29.86 in 6.2 mi ESE 15.0 mph - N/A   Overcast
12:55 PM 50.0 °F 46.4 °F 87% 29.83 in 3.7 mi ESE 17.3 mph - N/A Rain Light Rain
1:00 PM 49 °F 47 °F 91% 29.85 in 3 mi ESE 17.9 mph - - Rain Drizzle
1:25 PM 48.2 °F 46.4 °F 93% 29.83 in 5.6 mi ESE 15.0 mph - N/A Rain Light Rain
1:55 PM 48.2 °F 46.4 °F 93% 29.80 in 4.3 mi ESE 17.3 mph - N/A   Light Drizzle
2:00 PM 49 °F 47 °F 90% 29.82 in 3 mi ESE 17.9 mph - - Rain Rain
2:25 PM 48.2 °F 46.4 °F 93% 29.80 in 3.1 mi East 19.6 mph - N/A Rain Rain
2:55 PM 48.2 °F 46.4 °F 93% 29.77 in 2.8 mi East 18.4 mph - N/A Rain Light Rain
3:00 PM 49 °F 47 °F 90% 29.79 in 2 mi East 17.9 mph - - Rain Light Rain Showers
3:25 PM 48.2 °F 46.4 °F 93% 29.77 in 2.2 mi East 18.4 mph - N/A Rain Light Drizzle
3:55 PM 48.2 °F 46.4 °F 93% 29.77 in 2.5 mi East 18.4 mph - N/A Rain Light Drizzle
4:00 PM 48 °F 47 °F 94% 29.77 in 3 mi East 20.1 mph - - Rain Light Rain
4:25 PM 48.2 °F 46.4 °F 93% 29.74 in - East 19.6 mph 31.1 mph N/A Rain Light Drizzle
4:55 PM 48.2 °F 46.4 °F 93% 29.77 in 3.1 mi East 19.6 mph - N/A Rain Light Drizzle
5:00 PM 48 °F 46 °F 92% 29.78 in 3 mi East 17.9 mph - - Rain Heavy Rain
5:25 PM 48.2 °F 46.4 °F 93% 29.77 in - East 17.3 mph - N/A Rain Drizzle
5:55 PM 48.2 °F 46.4 °F 93% 29.77 in 5.6 mi East 19.6 mph - N/A Rain Light Rain
6:25 PM 48.2 °F 46.4 °F 93% 29.80 in 3.1 mi East 17.3 mph - N/A Rain Drizzle
6:55 PM 48.2 °F 46.4 °F 93% 29.80 in 2.5 mi East 18.4 mph - N/A   Drizzle
7:25 PM 48.2 °F 46.4 °F 93% 29.80 in 2.2 mi East 20.7 mph - N/A   Drizzle
7:55 PM 48.2 °F 46.4 °F 93% 29.80 in - East 21.9 mph - N/A   Light Drizzle
8:00 PM 48 °F 46 °F 91% 29.82 in 2 mi East 20.1 mph - - Rain Light Rain
8:25 PM 48.2 °F 46.4 °F 93% 29.83 in 3.7 mi East 18.4 mph - N/A   Light Drizzle
8:55 PM 48.2 °F 46.4 °F 93% 29.83 in 6.2 mi East 18.4 mph - N/A   Mostly Cloudy
9:25 PM 48.2 °F 46.4 °F 93% 29.86 in 6.2 mi East 17.3 mph - N/A   Mostly Cloudy
9:55 PM 48.2 °F 44.6 °F 87% 29.86 in 6.2 mi East 17.3 mph - N/A   Mostly Cloudy
10:00 PM 49 °F 46 °F 83% 29.89 in 9 mi East 15.7 mph - -   Partly Cloudy
10:25 PM 48.2 °F 44.6 °F 87% 29.89 in 6.2 mi East 16.1 mph - N/A   Mostly Cloudy
10:55 PM 48.2 °F 44.6 °F 87% 29.89 in 6.2 mi East 16.1 mph - N/A   Mostly Cloudy
11:00 PM 49 °F 45 °F 79% 29.92 in 28 mi East 15.7 mph - -   Partly Cloudy
11:25 PM 50.0 °F 44.6 °F 82% 29.92 in 6.2 mi ENE 18.4 mph - N/A   Mostly Cloudy
11:55 PM 50.0 °F 44.6 °F 82% 29.92 in 6.2 mi East 16.1 mph - N/A   Mostly Cloudy